Location: Winthrop
(48.4780°N, 120.1850°W)
Time: 16:04:04
(UTC-07:00)

Explorer 7 - Pass Details

Date: 29 January 2023
Orbit: 478 x 657 km, 50.3° (Epoch: 30 March)

Event Time Altitude Azimuth Distance (km) Brightness Sun altitude
Rises 14:28:31 0° 241° (WSW) 2,749 11.5 17.2°
Reaches altitude 10° 14:30:43 10° 239° (WSW) 1,885 11.0 17.0°
Maximum altitude 14:35:01 69° 157° (SSE) 645 7.6 16.6°
Drops below altitude 10° 14:39:36 10° 74° (ENE) 2,004 9.3 16.2°
Sets 14:41:59 0° 72° (ENE) 2,938 10.0 16.0°
